Zurück zum Katalog

STARLINK-3753

AktivKommunikationVLEO
NORAD 52292·PAYLOAD·🇺🇸 United States

Gestartet Apr 21, 2022 von Cape Canaveral Space Force Station

Loading…

Nächste Überflüge (nächste 24 Stunden)

TLE

AktuellSource: CelesTrak SupGP

Epoche: Sep 14, 2026, 22:21 UTC

1 52292C 22041AH  26257.93173611  .00006585  00000+0  19456-3 0  2570
2 52292  53.1596 317.4026 0000305  42.8564 128.3068 15.34384313    15

Verfolge STARLINK-3753 in Echtzeit mit AllMySat

Download on the App Store